This demonstration page uses our WeatherBlox Daily Observations layout. Learn more.

41.55636, -103.73856

Hourly Observations for May 21, 2015

Temp ( °F °C ) Dew Point ( °F °C ) Humidity (%) Winds ( mph kmh ) Pressure ( in mb ) Visibility ( mi km ) Precip ( " mm )
12:53 am 00:53 Cloudy 41 5 36 2.2 82 82 ESE 5 7 30.32 1027 10 16.0934 0 0
1:53 am 01:53 Cloudy 41 5 35 1.7 79 79 ESE 6 9 30.3 1026 10 16.0934 0 0
2:53 am 02:53 Cloudy 41 5 36 2.2 82 82 ESE 8 13 30.29 1026 10 16.0934 0 0
3:53 am 03:53 Cloudy 41 5 36 2.2 82 82 ESE 7 11 30.28 1026 10 16.0934 0 0
4:53 am 04:53 Cloudy 41 5 36 2.2 82 82 ESE 8 13 30.27 1025 10 16.0934 0 0
5:53 am 05:53 Cloudy 41 5 36 2.2 82 82 ESE 7 11 30.28 1025 10 16.0934 0 0
6:53 am 06:53 Cloudy 42 5.6 37 2.8 82 82 ESE 9 15 30.27 1025 10 16.0934 0 0
7:53 am 07:53 Cloudy 43 6.1 38 3.3 82 82 E 8 13 30.27 1025 10 16.0934 0 0
8:53 am 08:53 Cloudy 46 7.8 40 4.4 79 79 SE 9 15 30.26 1025 10 16.0934 0 0
9:53 am 09:53 Cloudy 48 8.9 39 3.9 71 71 VRB 7 11 30.24 1024 10 16.0934 0 0
10:53 am 10:53 Cloudy 51 10.6 39 3.9 64 64 SE 8 13 30.23 1024 10 16.0934 0 0
11:44 am 11:44 Cloudy 54 12 39 4 58 58 SSE 8 13 30.12 1020 10 16.0934 0 0
11:53 am 11:53 Cloudy 53 11.7 39 3.9 59 59 SSE 10 17 30.21 1023 10 16.0934 0 0
12:53 pm 12:53 Cloudy 54 12.2 40 4.4 59 59 SE 12 19 30.19 1022 10 16.0934 0 0
1:53 pm 13:53 Cloudy 55 12.8 42 5.6 62 62 ESE 15 24 30.18 1022 10 16.0934 0 0
2:53 pm 14:53 Cloudy 55 12.8 42 5.6 62 62 ESE 15 24 30.16 1021 10 16.0934 0 0
3:53 pm 15:53 Cloudy 56 13.3 42 5.6 60 60 S 14 22 30.15 1021 10 16.0934 0 0
4:53 pm 16:53 Cloudy 56 13.3 43 6.1 62 62 SSE 10 17 30.14 1021 10 16.0934 0 0
5:53 pm 17:53 Cloudy 55 12.8 43 6.1 64 64 ESE 14 22 30.12 1020 10 16.0934 0 0
6:53 pm 18:53 Cloudy 55 12.8 44 6.7 67 67 ESE 14 22 30.09 1019 10 16.0934 0 0
7:53 pm 19:53 Cloudy 54 12.2 44 6.7 69 69 ESE 12 19 30.09 1019 10 16.0934 0 0
8:53 pm 20:53 Cloudy 53 11.7 45 7.2 74 74 ESE 13 20 30.09 1019 10 16.0934 0 0
9:53 pm 21:53 Cloudy 52 11.1 45 7.2 77 77 ESE 15 24 30.11 1020 10 16.0934 0 0
10:53 pm 22:53 Cloudy 52 11.1 44 6.7 75 75 SE 13 20 30.09 1019 10 16.0934 0 0
11:53 pm 23:53 Cloudy 51 10.6 45 7.2 80 80 ESE 13 20 30.06 1018 10 16.0934 0 0

Powered by AerisWeather